SCP
0 0 0 0 0 0 0 0 0 0 0 0 0 0 0 0 0 0 0 0 0 0 0 0 0 0 0 0 0 0 0 0 0 0 0 0 0 0 0 0 0 0 0
0 0 0 0 0 0 0 0 0 0 0 0 0 0 0 0 0 0 0 0 0 0 0 0 0 0 0 0 0 0 0 0 0 0 0 0 0 0 0 0 0 0 0
0 0 0 0 0 0 0 0 0 0 0 0 0 0 0 0 0 0 0 0 0 0 0 0 0 0 0 0 0 0 0 0 0 0 0 0 0 0 0 0 0 0 0
0 0 0 0 0 0 0 0 0 0 0 0 0 0 0 0 0 0 0 0 0 0 0 0 0 0 0 0 0 0 0 0 0 0 0 0 0 0 0 0 0 0 0
0 0 0 0 0 0 0 0 0 0 0 0 0 0 0 0 0 0 0 0 0 0 0 0 0 0 0 0 0 0 0 0 0 0 0 0 0 0 0 0 0 0 0
0 0 0 0 0 0 0 0 0 0 0 0 0 0 0 0 0 0 0 0 0 0 0 0 0 0 0 0 0 0 0 0 0 0 0 0 0 0 0 0 0 0 0
0 0 0 0 0 0 0 0 0 0 0 0 0 0 0 0 0 0 0 0 0 0 0 0 0 0 0 0 0 0 0 0 0 0 0 0 0 0 0 0 0 0 0
0 0 0 0 0 0 0 0 0 0 0 0 0 0 0 0 0 0 0 0 0 0 0 0 0 0 0 0 0 0 0 0 0 0 0 0 0 0 0 0 0 0 0
0 0 0 0 0 0 0 0 0 0 0 0 0 0 0 0 0 0 0 0 0 0 0 0 0 0 0 0 0 0 0 0 0 0 0 0 0 0 0 0 0 0 0
0 0 0 0 0 0 0 0 0 0 0 0 0 0 0 0 0 0 0 0 0 0 0 0 0 0 0 0 0 0 0 0 0 0 0 0 0 0 0 0 0 0 0
0 0 0 0 0 0 0 0 0 0 0 0 0 0 0 0 0 0 0 0 0 0 0 0 0 0 0 0 0 0 0 0 0 0 0 0 0 0 0 0 0 0 0
0 0 0 0 0 0 0 0 0 0 0 0 0 0 0 0 0 0 0 0 0 0 0 0 0 0 0 0 0 0 0 0 0 0 0 0 0 0 0 0 0 0 0
0 0 0 0 0 0 0 0 0 0 0 0 0 0 0 0 0 0 0 0 0 0 0 0 0 0 0 0 0 0 0 0 0 0 0 0 0 0 0 0 0 0 0
0 0 0 0 0 0 0 0 0 0 0 0 0 0 0 0 0 0 0 0 0 0 0 0 0 0 0 0 0 0 0 0 0 0 0 0 0 0 0 0 0 0 0
0 0 0 0 0 0 0 0 0 0 0 0 0 0 0 0 0 0 0 0 0 0 0 0 0 0 0 0 0 0 0 0 0 0 0 0 0 0 0 0 0 0 0
0 0 0 0 0 0 0 0 0 0 0 0 0 0 0 0 0 0 0 0 0 0 0 0 0 0 0 0 0 0 0 0 0 0 0 0 0 0 0 0 0 0 0
0 0 0 0 0 0 0 0 0 0 0 0 0 0 0 0 0 0 0 0 0 0 0 0 0 0 0 0 0 0 0 0 0 0 0 0 0 0 0 0 0 0 0
0 0 0 0 0 0 0 0 0 0 0 0 0 0 0 0 0 0 0 0 0 0 0 0 0 0 0 0 0 0 0 0 0 0 0 0 0 0 0 0 0 0 0
0 0 0 0 0 0 0 0 0 0 0 0 0 0 0 0 0 0 0 0 0 0 0 0 0 0 0 0 0 0 0 0 0 0 0 0 0 0 0 0 0 0 0
0 0 0 0 0 0 0 0 0 0 0 0 0 0 0 0 0 0 0 0 0 0 0 0 0 0 0 0 0 0 0 0 0 0 0 0 0 0 0 0 0 0 0
0 0 0 0 0 0 0 0 0 0 0 0 0 0 0 0 0 0 0 0 0 0 0 0 0 0 0 0 0 0 0 0 0 0 0 0 0 0 0 0 0 0 0
0 0 0 0 0 0 0 0 0 0 0 0 0 0 0 0 0 0 0 0 0 0 0 0 0 0 0 0 0 0 0 0 0 0 0 0 0 0 0 0 0 0 0
0 0 0 0 0 0 0 0 0 0 0 0 0 0 0 0 0 0 0 0 0 0 0 0 0 0 0 0 0 0 0 0 0 0 0 0 0 0 0 0 0 0 0
0 0 0 0 0 0 0 0 0 0 0 0 0 0 0 0 0 0 0 0 0 0 0 0 0 0 0 0 0 0 0 0 0 0 0 0 0 0 0 0 0 0 0
0 0 0 0 0 0 0 0 0 0 0 0 0 0 0 0 0 0 0 0 0 0 0 0 0 0 0 0 0 0 0 0 0 0 0 0 0 0 0 0 0 0 0
0 0 0 0 0 0 0 0 0 0 0 0 0 0 0 0 0 0 0 0 0 0 0 0 0 0 0 0 0 0 0 0 0 0 0 0 0 0 0 0 0 0 0
Wind_Speed
3 4 5 5 5 6 6 8 7 7 7 9 9 10 11 11 11 12 13 11 15 15 14 15 16 13 10 9 8 7 8 6 8 4 4 5 10 11 10 10 9 10 10
3 4 5 5 5 6 7 7 7 7 7 8 8 9 10 10 10 12 13 13 14 15 15 15 16 12 14 11 10 11 10 9 8 7 5 6 9 11 10 11 9 8 7
4 4 5 6 6 7 7 7 6 7 7 7 8 9 10 10 10 11 12 12 13 13 13 15 15 14 15 12 12 12 10 8 6 6 5 4 4 6 8 7 7 6 7
5 5 6 7 7 7 7 6 6 6 7 8 8 9 9 9 9 9 10 10 11 11 11 12 12 14 15 14 12 12 10 9 7 6 5 5 4 5 7 7 6 6 7
5 5 7 7 6 6 6 6 6 6 7 7 7 8 8 7 8 9 9 10 10 10 9 9 10 12 14 13 10 11 11 10 8 8 7 6 6 7 9 8 8 5 5
5 6 7 6 6 6 6 6 6 6 6 6 7 8 8 7 11 14 11 9 9 9 9 8 8 9 11 17 18 17 17 14 13 11 9 9 10 8 7 7 7 5 5
6 7 6 6 6 7 6 5 6 6 6 6 7 7 8 10 14 14 14 9 8 8 8 7 6 6 8 9 14 17 17 19 18 12 11 11 10 10 11 9 8 7 5
7 7 6 6 7 6 6 6 6 5 5 6 6 7 7 8 12 12 12 9 8 8 7 7 7 6 7 8 7 8 8 10 12 9 8 8 8 9 10 10 8 5 2
7 7 7 7 7 7 7 7 5 4 5 5 4 5 6 7 10 11 10 5 6 6 5 6 6 6 10 13 9 8 7 6 9 10 9 9 12 14 12 7 7 5 4
8 8 8 7 7 7 7 6 5 4 5 4 4 4 5 5 8 10 10 4 5 4 3 4 6 7 11 13 8 8 8 6 6 7 8 10 9 12 16 10 9 7 4
7 8 7 7 6 6 6 5 4 3 3 3 4 3 3 4 6 9 9 4 5 4 4 3 4 9 11 12 10 7 8 7 7 7 6 6 6 6 7 7 7 6 6
7 7 7 7 5 4 4 4 3 2 3 3 3 3 2 2 3 5 7 8 6 4 3 3 4 9 11 11 9 9 11 9 5 5 5 5 5 5 5 6 6 6 5
7 7 7 6 5 4 3 3 2 2 2 2 2 2 2 1 2 4 4 5 7 3 3 5 6 8 8 6 8 9 7 5 5 4 5 4 4 4 4 3 3 3 3
7 7 6 5 5 4 2 2 2 2 2 2 2 2 1 1 1 1 1 1 3 3 3 3 6 7 5 4 3 4 3 4 4 4 4 3 3 3 3 3 3 3 3
7 7 6 5 4 3 2 2 2 2 3 3 2 2 2 2 2 3 2 2 2 3 3 2 2 1 2 2 2 2 2 3 3 3 3 3 3 3 3 3 3 3 4
6 6 5 4 3 3 2 1 0 1 1 2 2 2 1 1 2 3 4 4 6 8 5 3 2 2 2 2 2 2 1 2 2 2 3 3 3 3 3 3 3 4 4
6 6 5 4 3 3 2 2 1 2 4 4 4 3 2 2 2 3 5 6 6 7 3 3 2 2 1 1 1 1 1 1 1 2 2 2 2 2 3 3 3 3 4
6 6 6 4 3 3 2 2 1 1 1 2 5 8 7 7 7 5 5 6 4 4 3 3 2 2 1 1 1 1 1 1 1 1 1 1 2 2 3 3 3 4 4
5 4 4 3 2 2 1 1 2 2 2 2 2 5 8 8 10 11 8 4 4 3 3 3 2 2 2 2 1 1 1 1 1 1 1 1 1 1 2 2 3 4 3
4 4 3 2 1 0 1 1 2 3 3 2 2 2 3 4 4 5 6 4 4 4 3 3 2 2 2 2 1 1 1 1 1 1 0 0 0 1 2 2 3 3 3
3 2 2 1 1 1 2 2 3 3 3 3 2 3 6 4 4 4 4 4 3 3 2 2 2 2 2 2 1 1 1 0 0 0 1 1 1 1 1 1 2 2 2
2 1 1 1 1 2 2 3 3 3 4 4 3 4 7 5 3 3 3 3 2 2 2 1 1 1 1 1 1 0 0 0 1 1 1 1 1 1 1 1 1 2 2
1 1 1 2 2 3 4 3 3 3 3 3 3 3 3 3 3 2 2 2 2 2 2 1 1 1 1 1 0 1 1 2 2 2 2 2 2 2 2 2 3 2 3
2 2 2 3 3 3 3 3 3 3 3 2 2 2 2 2 1 1 1 1 1 1 1 1 1 1 2 2 1 1 2 2 2 2 3 3 3 3 2 3 3 3 3
3 3 3 3 3 3 3 3 2 2 2 2 1 1 1 1 0 1 1 1 1 1 2 2 1 2 3 3 3 3 4 5 3 2 3 3 3 3 3 3 3 3 3
3 3 3 3 2 2 2 2 1 1 1 1 0 0 1 1 1 1 1 2 2 2 3 2 3 4 4 4 5 6 7 7 7 6 4 3 4 4 4 3 4 4 4
Wind_Direction
258 253 252 249 241 235 234 233 228 224 216 216 216 218 221 223 222 223 225 217 218 220 218 220 224 219 218 213 205 204 210 209 229 207 179 176 188 197 197 195 196 201 210
274 264 259 259 251 245 244 241 231 228 221 217 215 218 221 223 221 223 227 224 223 223 221 220 223 219 219 214 210 211 212 209 212 207 180 180 194 197 192 193 196 199 202
293 280 276 269 259 254 253 248 236 230 227 220 216 220 223 222 222 224 228 228 228 228 223 221 221 216 220 216 214 213 211 205 200 193 184 174 176 183 184 191 193 195 201
308 287 276 271 266 263 261 254 244 235 232 227 222 223 223 222 223 224 227 231 233 233 229 225 222 218 220 216 214 212 203 196 190 187 176 171 170 168 177 184 195 199 205
304 290 279 279 277 272 265 260 252 242 237 232 228 229 227 224 224 223 226 231 235 237 234 230 227 224 222 215 211 205 197 196 189 191 188 177 177 172 189 185 195 189 204
307 292 292 295 289 278 270 265 257 250 243 235 230 228 228 228 230 227 224 228 232 235 238 234 229 222 221 221 220 211 201 197 195 193 195 194 192 185 174 178 176 171 208
307 302 302 299 293 286 282 273 262 255 247 241 237 231 234 236 234 231 227 223 229 232 233 230 227 219 214 218 222 220 215 213 204 194 196 196 184 180 173 177 186 190 199
307 305 306 303 295 293 287 275 267 260 250 246 242 235 238 242 239 235 229 224 231 232 228 224 224 218 210 205 206 209 207 210 208 201 198 187 177 171 178 181 185 182 149
309 308 307 302 297 294 286 279 273 265 258 249 243 234 236 244 239 236 227 220 229 231 225 218 216 215 215 210 202 200 196 198 201 191 185 179 179 179 174 159 161 172 202
309 306 303 296 290 288 284 283 280 266 261 254 252 240 236 243 242 237 224 212 220 220 214 210 207 208 214 209 200 190 191 183 170 173 180 182 182 186 185 182 178 186 190
306 304 303 299 291 286 287 285 280 275 271 264 261 259 248 248 253 242 228 209 209 204 205 202 207 213 217 212 202 194 196 176 172 173 174 173 174 180 188 192 192 192 197
307 305 304 302 298 294 290 290 281 262 263 265 264 271 273 268 250 245 237 224 201 195 204 193 202 212 218 216 207 198 193 176 164 168 172 176 179 187 191 195 200 207 212
309 302 300 300 298 291 278 279 282 261 248 252 248 259 276 288 280 259 246 231 204 187 186 188 192 203 207 212 213 200 185 172 165 174 185 191 189 184 175 178 189 200 217
300 298 297 297 298 298 285 271 262 253 245 239 237 245 257 274 284 291 246 203 180 174 168 180 191 201 197 176 183 192 172 171 174 180 182 179 164 166 178 179 190 192 210
295 292 291 285 284 290 284 265 259 257 237 234 240 227 221 238 232 203 165 149 145 147 134 126 135 140 160 148 152 167 164 166 177 178 175 174 175 178 185 179 183 185 205
292 290 288 285 281 271 267 285 273 229 202 212 206 194 207 193 178 176 162 150 153 150 132 133 141 149 158 160 161 160 158 166 174 174 177 183 186 188 190 186 191 201 217
276 279 279 274 265 252 237 217 190 73 62 56 62 84 87 88 101 127 139 133 130 138 118 124 132 140 142 141 137 141 151 148 148 162 173 179 182 190 192 196 199 209 222
276 273 269 264 256 243 232 219 188 155 95 29 31 48 57 65 65 70 99 102 82 73 77 99 103 103 107 112 114 117 121 125 133 149 164 175 185 196 202 204 204 208 214
281 279 280 276 263 248 228 176 137 118 105 74 34 25 28 47 52 50 58 69 85 74 67 70 70 73 73 73 72 76 92 107 100 119 151 172 184 193 210 214 215 214 212
284 287 293 286 289 258 122 127 122 113 102 82 51 8 2 38 46 35 39 52 69 69 64 66 58 54 55 57 59 67 75 81 83 98 124 174 206 212 219 220 218 219 223
295 302 323 345 27 61 81 98 109 111 104 86 47 48 75 74 73 64 57 53 58 62 59 61 55 47 44 46 48 52 72 105 162 192 208 224 225 236 241 233 229 224 223
299 313 352 43 64 71 77 82 93 100 102 94 59 44 66 71 72 69 60 51 42 37 33 51 55 36 24 24 26 21 344 298 286 262 241 234 234 235 235 231 229 226 217
345 27 50 55 63 76 75 74 80 87 87 78 71 62 56 61 62 60 50 32 27 22 16 30 36 360 348 347 326 230 229 243 242 232 232 232 228 225 222 227 227 228 225
19 44 61 64 65 69 74 74 74 80 85 83 72 65 60 57 53 44 21 356 352 347 349 351 327 303 306 310 301 280 258 253 242 226 218 220 226 227 224 228 231 230 230
28 39 51 58 60 63 68 67 65 65 66 66 64 57 45 34 11 327 304 298 300 297 297 292 279 279 282 284 281 276 277 280 265 229 214 211 220 223 222 225 226 228 227
28 34 38 43 46 47 54 55 48 38 31 15 360 325 297 287 279 276 277 276 278 277 277 273 268 270 274 275 275 275 270 266 252 230 202 199 209 219 215 220 223 223 223